ONEWEB-0043 (45149 NORAD) Tracking and Keplerian Element Data

This shows tracking and keplerian element data for the satellite.

Feedback or suggestion? Click here.




ElementValue
Catalog45149
NameONEWEB-0043
Epoch Orbit3888
Epoch Day298.25001157
Epoch Year2020
RAAN86.2964
Inclination87.9319
Eccentricity0.0017539
Argument of Perigee122.0953
Mean Anonmoly177.891
Mean Motion13.35916547
Decay Rate1.4E-07
L11 45149U 20008U 20298.25001157 .00000014 00000-0 00000+0 0 9999
L22 45149 87.9319 86.2964 0017539 122.0953 177.8910 13.35916547 38888

Live tracking and technical data element details for ONEWEB-0043 (NORAD 45149). ONEWEB-0043 can be tracked NOW for your location showing map with azimuth and elevation plus other details from your city location.

Track the satellite on the map from your city or location and see movement details for azimuth, elevation, latitude, longitude, range, height, and movement on the map or in text.







IsCatalogInMostPopularTable: catalog: 45149, numindb: 53
Update: records affected: 1



GetName: 45149 ONEWEB-0043

Hit Count: updated at: Sat, 24 Oct 2020 23:46:44 GMT